Zurück zum Katalog

STARLINK-5589

AktivKommunikationVLEO
NORAD 57334·PAYLOAD·🇺🇸 United States

Gestartet Jul 16, 2023 von Cape Canaveral Space Force Station

Loading…

Nächste Überflüge (nächste 24 Stunden)

TLE

AktuellSource: CelesTrak SupGP

Epoche: Sep 15, 2026, 03:08 UTC

1 57334C 23099G   26258.13104167 -.00028483  00000+0 -10316-2 0  2588
2 57334  42.9994 262.6089 0001289 266.0096 257.5555 15.27593159    15

Verfolge STARLINK-5589 in Echtzeit mit AllMySat

Download on the App Store